W5TTY Weather Reports


Display with metric or nautical units.
time (UTC)temp
F
wind
direction
speed
MPH
gust
MPH
rain 1hr
in
rain 24hr
in
rain mn
in
humidity
%
barometer
mb
20220118101818 40 141 4.0 7.0 0.00 0.00 0.00 50 1016.8
20220118101327 40 146 4.0 8.0 0.00 0.00 0.00 50 1016.8
20220118100815 41 145 4.0 8.0 0.00 0.00 0.00 50 1016.9
20220118100333 41 150 5.0 7.0 0.00 0.00 0.00 50 1016.9
20220118095820 40 146 5.0 7.0 0.00 0.00 0.00 50 1017.0
20220118095337 40 147 3.0 6.0 0.00 0.00 0.00 50 1017.1
20220118094826 41 149 4.0 7.0 0.00 0.00 0.00 49 1017.1
20220118094330 41 139 5.0 7.0 0.00 0.00 0.00 49 1017.0
20220118093820 41 145 5.0 7.0 0.00 0.00 0.00 49 1017.0
20220118093329 41 146 4.0 8.0 0.00 0.00 0.00 49 1017.1
20220118092817 41 149 5.0 8.0 0.00 0.00 0.00 49 1017.1
20220118092323 41 153 4.0 6.0 0.00 0.00 0.00 48 1017.2
20220118091838 41 163 2.0 5.0 0.00 0.00 0.00 48 1017.3
20220118091326 42 155 2.0 5.0 0.00 0.00 0.00 48 1017.4
20220118090814 42 155 3.0 5.0 0.00 0.00 0.00 48 1017.4
20220118090329 42 155 2.0 6.0 0.00 0.00 0.00 48 1017.4
20220118085834 42 153 3.0 6.0 0.00 0.00 0.00 48 1017.5
20220118085322 42 159 3.0 5.0 0.00 0.00 0.00 48 1017.5
20220118084832 43 173 3.0 5.0 0.00 0.00 0.00 47 1017.5
20220118084321 43 179 3.0 5.0 0.00 0.00 0.00 47 1017.5
20220118083835 43 180 3.0 5.0 0.00 0.00 0.00 47 1017.6
20220118083323 43 178 3.0 5.0 0.00 0.00 0.00 47 1017.6
20220118082838 43 165 3.0 7.0 0.00 0.00 0.00 47 1017.5
20220118082325 43 162 4.0 7.0 0.00 0.00 0.00 46 1017.4
20220118081828 44 159 3.0 5.0 0.00 0.00 0.00 46 1017.5
20220118081318 44 158 3.0 5.0 0.00 0.00 0.00 46 1017.5
20220118080822 44 159 3.0 7.0 0.00 0.00 0.00 46 1017.5
20220118080326 45 157 3.0 9.0 0.00 0.00 0.00 46 1017.6
20220118075815 45 165 4.0 8.0 0.00 0.00 0.00 46 1017.6
20220118075331 45 144 5.0 9.0 0.00 0.00 0.00 46 1017.4
20220118074819 45 144 5.0 10.0 0.00 0.00 0.00 46 1017.4
20220118074333 45 162 6.0 10.0 0.00 0.00 0.00 46 1017.4
20220118073822 45 155 5.0 11.0 0.00 0.00 0.00 45 1017.5
20220118073329 45 153 5.0 11.0 0.00 0.00 0.00 45 1017.6
20220118072816 45 156 5.0 9.0 0.00 0.00 0.00 45 1017.7
20220118072323 45 139 5.0 10.0 0.00 0.00 0.00 45 1017.6
20220118071830 45 143 6.0 10.0 0.00 0.00 0.00 45 1017.6
20220118071315 45 129 4.0 10.0 0.00 0.00 0.00 44 1017.6
20220118070830 46 165 5.0 10.0 0.00 0.00 0.00 45 1017.7
20220118070321 46 163 6.0 8.0 0.00 0.00 0.00 44 1017.8
20220118065834 46 161 5.0 8.0 0.00 0.00 0.00 44 1017.8
20220118065317 46 158 4.0 10.0 0.00 0.00 0.00 44 1017.8
20220118064823 46 177 5.0 10.0 0.00 0.00 0.00 44 1017.9
20220118064331 46 155 4.0 9.0 0.00 0.00 0.00 44 1017.9
20220118063820 46 171 5.0 11.0 0.00 0.00 0.00 44 1017.9
20220118063335 46 157 6.0 11.0 0.00 0.00 0.00 43 1017.8
20220118062825 46 161 6.0 10.0 0.00 0.00 0.00 43 1017.8
20220118062339 46 153 6.0 10.0 0.00 0.00 0.00 43 1017.8
20220118061827 46 151 6.0 10.0 0.00 0.00 0.00 43 1017.9
20220118061331 47 155 5.0 8.0 0.00 0.00 0.00 43 1018.0
20220118060820 47 163 6.0 12.0 0.00 0.00 0.00 43 1017.9
20220118060331 47 167 6.0 12.0 0.00 0.00 0.00 43 1017.9
20220118055833 47 169 6.0 9.0 0.00 0.00 0.00 43 1018.1
20220118055322 47 156 5.0 10.0 0.00 0.00 0.00 43 1018.1
20220118054835 47 158 5.0 13.0 0.00 0.00 0.00 42 1018.1
20220118054322 47 150 5.0 13.0 0.00 0.00 0.00 42 1018.1
20220118053836 47 155 6.0 9.0 0.00 0.00 0.00 42 1018.2
20220118053326 48 144 4.0 11.0 0.00 0.00 0.00 42 1018.2
20220118052831 48 152 6.0 11.0 0.00 0.00 0.00 42 1018.3
20220118052320 48 152 6.0 11.0 0.00 0.00 0.00 42 1018.2
20220118051829 48 171 5.0 11.0 0.00 0.00 0.00 42 1018.3
20220118051315 47 161 7.0 11.0 0.00 0.00 0.00 42 1018.3
20220118050827 47 150 6.0 11.0 0.00 0.00 0.00 42 1018.2
20220118050316 47 169 6.0 11.0 0.00 0.00 0.00 42 1018.2
20220118045832 46 162 6.0 11.0 0.00 0.00 0.00 42 1018.2
20220118045322 46 146 7.0 12.0 0.00 0.00 0.00 42 1018.1
20220118044828 45 165 8.0 13.0 0.00 0.00 0.00 41 1018.1
20220118044316 44 173 9.0 15.0 0.00 0.00 0.00 41 1018.0
20220118043823 44 153 9.0 15.0 0.00 0.00 0.00 40 1017.9
20220118043332 44 144 8.0 13.0 0.00 0.00 0.00 40 1018.0
20220118042822 44 148 8.0 12.0 0.00 0.00 0.00 40 1018.0
20220118042338 44 153 6.0 10.0 0.00 0.00 0.00 40 1018.0
20220118041826 44 153 6.0 9.0 0.00 0.00 0.00 40 1018.1
20220118041317 44 145 5.0 10.0 0.00 0.00 0.00 40 1018.2
20220118040831 45 145 6.0 10.0 0.00 0.00 0.00 40 1018.2
20220118040335 45 142 6.0 9.0 0.00 0.00 0.00 39 1018.2
20220118035820 45 169 6.0 10.0 0.00 0.00 0.00 40 1018.2
20220118035330 45 150 6.0 10.0 0.00 0.00 0.00 40 1018.3
20220118034820 46 140 4.0 8.0 0.00 0.00 0.00 39 1018.3
20220118034334 46 151 5.0 8.0 0.00 0.00 0.00 39 1018.4
20220118033822 46 152 4.0 8.0 0.00 0.00 0.00 39 1018.3
20220118033337 46 150 5.0 9.0 0.00 0.00 0.00 39 1018.3
20220118032823 46 157 5.0 9.0 0.00 0.00 0.00 39 1018.3
20220118032327 47 153 5.0 9.0 0.00 0.00 0.00 39 1018.3
20220118031817 47 131 6.0 9.0 0.00 0.00 0.00 39 1018.3
20220118031326 47 148 6.0 9.0 0.00 0.00 0.00 39 1018.3
20220118030817 47 155 5.0 9.0 0.00 0.00 0.00 39 1018.3
20220118030324 47 152 6.0 9.0 0.00 0.00 0.00 39 1018.3
20220118025836 47 150 5.0 9.0 0.00 0.00 0.00 39 1018.3
20220118025323 47 149 5.0 9.0 0.00 0.00 0.00 39 1018.2
20220118024836 47 146 6.0 9.0 0.00 0.00 0.00 39 1018.2
20220118024326 48 134 6.0 9.0 0.00 0.00 0.00 39 1018.1
20220118023832 48 146 6.0 10.0 0.00 0.00 0.00 39 1018.1
20220118023323 48 143 7.0 10.0 0.00 0.00 0.00 39 1018.1
20220118022830 48 143 6.0 10.0 0.00 0.00 0.00 39 1018.1
20220118022340 48 150 7.0 10.0 0.00 0.00 0.00 39 1018.1
20220118021826 49 151 7.0 9.0 0.00 0.00 0.00 39 1018.1
20220118021316 49 148 6.0 9.0 0.00 0.00 0.00 38 1018.1
20220118020832 49 148 6.0 11.0 0.00 0.00 0.00 38 1018.1
20220118020323 49 148 5.0 9.0 0.00 0.00 0.00 38 1018.0
20220118015828 50 134 6.0 9.0 0.00 0.00 0.00 38 1018.0
20220118015317 50 148 6.0 10.0 0.00 0.00 0.00 39 1018.0
20220118014824 50 153 6.0 10.0 0.00 0.00 0.00 38 1017.9
20220118014332 51 140 6.0 10.0 0.00 0.00 0.00 38 1017.8
20220118013822 51 142 6.0 9.0 0.00 0.00 0.00 38 1017.9
20220118013335 51 144 6.0 8.0 0.00 0.00 0.00 38 1017.8
20220118012825 51 140 6.0 9.0 0.00 0.00 0.00 39 1017.8
20220118012340 52 136 6.0 10.0 0.00 0.00 0.00 39 1017.9
20220118011829 52 146 7.0 10.0 0.00 0.00 0.00 39 1017.8
20220118011329 52 144 8.0 10.0 0.00 0.00 0.00 39 1017.8
20220118010816 53 144 7.0 10.0 0.00 0.00 0.00 39 1017.7
20220118010321 53 155 6.0 10.0 0.00 0.00 0.00 39 1017.6
20220118005831 53 154 7.0 10.0 0.00 0.00 0.00 39 1017.7
20220118005324 54 138 7.0 10.0 0.00 0.00 0.00 39 1017.7
20220118004814 54 146 8.0 10.0 0.00 0.00 0.00 39 1017.7
20220118004329 54 134 7.0 9.0 0.00 0.00 0.00 39 1017.7
20220118003831 55 145 6.0 8.0 0.00 0.00 0.00 39 1017.8
20220118003321 55 135 6.0 8.0 0.00 0.00 0.00 39 1017.8
20220118002832 56 146 5.0 7.0 0.00 0.00 0.00 39 1017.8
20220118002322 56 139 5.0 7.0 0.00 0.00 0.00 39 1017.9
20220118001902 57 143 5.0 7.0 0.00 0.00 0.00 39 1017.8
20220118001321 57 146 5.0 7.0 0.00 0.00 0.00 39 1017.7
20220118000835 58 150 5.0 7.0 0.00 0.00 0.00 39 1017.6
20220118000323 59 148 4.0 6.0 0.00 0.00 0.00 40 1017.6
20220117235825 59 148 4.0 5.0 0.00 0.00 0.00 40 1017.6
20220117235316 60 157 4.0 6.0 0.00 0.00 0.00 40 1017.7
20220117234823 61 157 3.0 6.0 0.00 0.00 0.00 41 1017.7
20220117234333 62 163 3.0 6.0 0.00 0.00 0.00 41 1017.6
20220117233822 62 154 3.0 6.0 0.00 0.00 0.00 41 1017.6
20220117233328 63 165 3.0 5.0 0.00 0.00 0.00 41 1017.5
20220117232817 63 188 3.0 6.0 0.00 0.00 0.00 42 1017.5
20220117232333 64 142 3.0 9.0 0.00 0.00 0.00 42 1017.6
20220117231817 64 159 5.0 10.0 0.00 0.00 0.00 42 1017.8
20220117231327 64 148 4.0 10.0 0.00 0.00 0.00 43 1017.9
20220117230836 65 140 5.0 10.0 0.00 0.00 0.00 43 1018.0
20220117230322 65 175 4.0 10.0 0.00 0.00 0.00 43 1017.8
20220117225835 65 124 5.0 10.0 0.00 0.00 0.00 43 1017.8
20220117225322 65 162 3.0 9.0 0.00 0.00 0.00 44 1017.9
20220117224838 65 154 6.0 10.0 0.00 0.00 0.00 44 1017.9
20220117224327 65 155 6.0 10.0 0.00 0.00 0.00 44 1018.0
20220117223816 65 151 5.0 10.0 0.00 0.00 0.00 44 1018.0
20220117223328 65 188 3.0 13.0 0.00 0.00 0.00 45 1018.0
20220117222816 66 154 5.0 13.0 0.00 0.00 0.00 45 1018.0
20220117222321 65 204 5.0 9.0 0.00 0.00 0.00 45 1018.1
20220117221826 65 126 4.0 11.0 0.00 0.00 0.00 45 1018.1
20220117221316 66 188 7.0 11.0 0.00 0.00 0.00 46 1018.1
20220117220832 66 143 5.0 9.0 0.00 0.00 0.00 46 1018.0
20220117220323 66 151 4.0 10.0 0.00 0.00 0.00 46 1018.1
20220117215835 66 145 5.0 10.0 0.00 0.00 0.00 47 1018.1
20220117215320 66 161 3.0 8.0 0.00 0.00 0.00 47 1018.0
20220117214829 66 207 3.0 12.0 0.00 0.00 0.00 47 1018.1
20220117214317 66 144 6.0 11.0 0.00 0.00 0.00 48 1018.2
20220117213825 66 111 4.0 11.0 0.00 0.00 0.00 48 1018.2
20220117213315 66 164 4.0 11.0 0.00 0.00 0.00 48 1018.2
20220117212831 65 138 4.0 8.0 0.00 0.00 0.00 49 1018.3
20220117212320 65 90 3.0 8.0 0.00 0.00 0.00 49 1018.3
20220117211834 65 158 5.0 7.0 0.00 0.00 0.00 49 1018.3
20220117211322 65 161 5.0 9.0 0.00 0.00 0.00 50 1018.4
20220117210827 65 92 2.0 8.0 0.00 0.00 0.00 50 1018.4
20220117210318 65 166 3.0 10.0 0.00 0.00 0.00 51 1018.4
20220117205828 65 149 7.0 10.0 0.00 0.00 0.00 51 1018.6
20220117205318 65 138 4.0 9.0 0.00 0.00 0.00 51 1018.6
20220117204832 65 136 6.0 9.0 0.00 0.00 0.00 52 1018.6
20220117204318 65 126 4.0 11.0 0.00 0.00 0.00 52 1018.5
20220117203833 65 144 6.0 11.0 0.00 0.00 0.00 53 1018.6
20220117203322 65 189 6.0 9.0 0.00 0.00 0.00 53 1018.6
20220117202827 65 195 4.0 9.0 0.00 0.00 0.00 54 1018.7
20220117202318 64 147 4.0 10.0 0.00 0.00 0.00 54 1018.7
20220117201826 64 91 7.0 10.0 0.00 0.00 0.00 54 1018.8
20220117201335 64 135 4.0 10.0 0.00 0.00 0.00 55 1018.9
20220117200817 64 152 5.0 10.0 0.00 0.00 0.00 55 1018.9
20220117200332 64 153 7.0 10.0 0.00 0.00 0.00 55 1019.1
20220117195822 64 161 3.0 6.0 0.00 0.00 0.00 56 1019.3
20220117195336 63 157 4.0 7.0 0.00 0.00 0.00 56 1019.3
20220117194827 63 184 5.0 12.0 0.00 0.00 0.00 57 1019.3
20220117194330 63 141 7.0 12.0 0.00 0.00 0.00 57 1019.4
20220117193819 63 105 3.0 8.0 0.00 0.00 0.00 57 1019.3
20220117193327 63 107 3.0 8.0 0.00 0.00 0.00 58 1019.2
20220117192837 63 156 4.0 10.0 0.00 0.00 0.00 59 1019.4
20220117192323 63 155 5.0 10.0 0.00 0.00 0.00 59 1019.5
20220117191839 62 99 5.0 10.0 0.00 0.00 0.00 59 1020.2
20220117191329 62 160 4.0 9.0 0.00 0.00 0.00 60 1020.5
20220117190819 61 120 4.0 8.0 0.00 0.00 0.00 60 1020.6
20220117190323 61 120 6.0 10.0 0.00 0.00 0.00 60 1020.6
20220117185829 61 139 5.0 10.0 0.00 0.00 0.00 61 1020.4
20220117185317 61 158 4.0 9.0 0.00 0.00 0.00 61 1020.2
20220117184839 61 88 6.0 8.0 0.00 0.00 0.00 62 1020.4
20220117184328 61 281 2.0 8.0 0.00 0.00 0.00 62 1020.6
20220117183815 61 121 5.0 9.0 0.00 0.00 0.00 62 1020.8
20220117183327 60 159 5.0 9.0 0.00 0.00 0.00 63 1020.9
20220117182831 60 140 4.0 10.0 0.00 0.00 0.00 63 1021.0
20220117182318 60 121 6.0 10.0 0.00 0.00 0.00 64 1021.1
20220117181825 60 65 4.0 10.0 0.00 0.00 0.00 64 1021.3
20220117181331 59 161 4.0 8.0 0.00 0.00 0.00 64 1021.3
20220117180822 59 151 4.0 9.0 0.00 0.00 0.00 65 1021.4
20220117180334 58 148 5.0 9.0 0.00 0.00 0.00 65 1021.6
20220117175823 58 98 4.0 9.0 0.00 0.00 0.00 65 1021.6
20220117175337 58 74 7.0 9.0 0.00 0.00 0.00 66 1021.9
20220117174825 58 122 6.0 12.0 0.00 0.00 0.00 66 1021.9
20220117174330 58 71 4.0 12.0 0.00 0.00 0.00 66 1022.0
20220117173820 58 113 3.0 10.0 0.00 0.00 0.00 67 1022.0
20220117173329 57 53 6.0 11.0 0.00 0.00 0.00 67 1022.0
20220117172839 57 63 6.0 10.0 0.00 0.00 0.00 67 1022.0
20220117172323 57 98 5.0 10.0 0.00 0.00 0.00 67 1022.2
20220117171838 56 107 5.0 9.0 0.00 0.00 0.00 67 1022.4
20220117171323 56 75 5.0 10.0 0.00 0.00 0.00 68 1022.4
20220117170831 56 101 5.0 9.0 0.00 0.00 0.00 68 1022.5
20220117170317 55 106 3.0 8.0 0.00 0.00 0.00 68 1022.5
20220117165825 55 107 6.0 9.0 0.00 0.00 0.00 68 1022.6
20220117165332 55 89 5.0 8.0 0.00 0.00 0.00 68 1022.6
20220117164817 54 110 4.0 8.0 0.00 0.00 0.00 68 1022.6
20220117164333 54 136 1.0 6.0 0.00 0.00 0.00 68 1022.6
20220117163822 53 104 2.0 6.0 0.00 0.00 0.00 68 1022.7
20220117163334 53 109 3.0 4.0 0.00 0.00 0.00 68 1022.7
20220117162825 52 93 2.0 6.0 0.00 0.00 0.00 68 1022.7
20220117162329 52 99 4.0 5.0 0.00 0.00 0.00 68 1022.7
20220117161818 51 123 3.0 4.0 0.00 0.00 0.00 68 1022.6
20220117161325 51 91 2.0 5.0 0.00 0.00 0.00 68 1022.6
20220117160832 50 51 2.0 4.0 0.00 0.00 0.00 68 1022.6
20220117160321 50 20 2.0 4.0 0.00 0.00 0.00 68 1022.7
20220117155836 49 78 3.0 4.0 0.00 0.00 0.00 68 1022.6
20220117155326 49 69 3.0 4.0 0.00 0.00 0.00 68 1022.6
20220117154816 48 83 2.0 4.0 0.00 0.00 0.00 68 1022.6
20220117154329 48 186 1.0 3.0 0.00 0.00 0.00 68 1022.5
20220117153832 47 186 2.0 3.0 0.00 0.00 0.00 68 1022.5
20220117153319 47 186 0.0 3.0 0.00 0.00 0.00 67 1022.4
20220117152826 46 186 1.0 3.0 0.00 0.00 0.00 67 1022.3
20220117152333 45 186 1.0 3.0 0.00 0.00 0.00 67 1022.4
20220117151821 44 187 1.0 3.0 0.00 0.00 0.00 67 1022.3
20220117151336 43 186 1.0 3.0 0.00 0.00 0.00 67 1022.3
20220117150822 42 186 1.0 3.0 0.00 0.00 0.00 67 1022.2
20220117150335 41 187 1.0 4.0 0.00 0.00 0.00 66 1022.1
20220117145817 40 190 2.0 4.0 0.00 0.00 0.00 66 1022.0
20220117145325 39 189 2.0 3.0 0.00 0.00 0.00 66 1021.9
20220117144832 39 122 1.0 2.0 0.00 0.00 0.00 66 1021.9
20220117144337 37 121 0.0 2.0 0.00 0.00 0.00 66 1021.8
20220117143827 35 121 1.0 2.0 0.00 0.00 0.00 66 1021.8
20220117143315 32 121 2.0 4.0 0.00 0.00 0.00 65 1021.7
20220117142829 31 121 3.0 4.0 0.00 0.00 0.00 65 1021.7
20220117142319 31 96 3.0 4.0 0.00 0.00 0.00 65 1021.6
20220117141823 30 71 3.0 4.0 0.00 0.00 0.00 65 1021.5
20220117141332 30 72 3.0 3.0 0.00 0.00 0.00 64 1021.5
20220117140822 30 71 2.0 3.0 0.00 0.00 0.00 64 1021.5
20220117140327 29 71 2.0 3.0 0.00 0.00 0.00 64 1021.5
20220117135840 29 63 2.0 4.0 0.00 0.00 0.00 64 1021.3
20220117135326 29 63 3.0 4.0 0.00 0.00 0.00 63 1021.3
20220117134815 29 63 3.0 4.0 0.00 0.00 0.00 63 1021.1
20220117134332 29 62 3.0 4.0 0.00 0.00 0.00 63 1021.2
20220117133822 29 62 3.0 4.0 0.00 0.00 0.00 63 1021.2
20220117133328 29 62 2.0 3.0 0.00 0.00 0.00 63 1021.1
20220117132322 29 62 3.0 4.0 0.00 0.00 0.00 63 1020.9
20220117131826 29 62 3.0 4.0 0.00 0.00 0.00 63 1020.7
20220117131316 30 62 3.0 4.0 0.00 0.00 0.00 63 1020.7
20220117130833 30 63 2.0 4.0 0.00 0.00 0.00 62 1020.7
20220117130324 30 62 3.0 4.0 0.00 0.00 0.00 62 1020.6
20220117125837 30 62 3.0 4.0 0.00 0.00 0.00 62 1020.5
20220117125326 30 62 3.0 4.0 0.00 0.00 0.00 62 1020.4
20220117124831 30 62 3.0 4.0 0.00 0.00 0.00 62 1020.3
20220117124319 30 62 3.0 4.0 0.00 0.00 0.00 62 1020.4
20220117123829 30 61 2.0 2.0 0.00 0.00 0.00 62 1020.4
20220117123319 30 61 1.0 3.0 0.00 0.00 0.00 62 1020.4
20220117122834 30 62 1.0 3.0 0.00 0.00 0.00 62 1020.5
20220117122320 30 61 2.0 4.0 0.00 0.00 0.00 62 1020.4
20220117121833 30 62 2.0 3.0 0.00 0.00 0.00 62 1020.5
20220117121319 30 62 1.0 3.0 0.00 0.00 0.00 61 1020.4
20220117120823 30 61 1.0 2.0 0.00 0.00 0.00 61 1020.4
20220117120332 30 61 1.0 3.0 0.00 0.00 0.00 61 1020.3
20220117115822 30 61 2.0 4.0 0.00 0.00 0.00 61 1020.3
20220117115333 30 61 3.0 4.0 0.00 0.00 0.00 61 1020.1
20220117114821 30 61 4.0 4.0 0.00 0.00 0.00 61 1020.1
20220117114334 31 60 4.0 4.0 0.00 0.00 0.00 61 1020.1
20220117113821 31 32 3.0 4.0 0.00 0.00 0.00 61 1020.1
20220117113334 31 32 3.0 4.0 0.00 0.00 0.00 61 1020.1
20220117112823 31 32 3.0 5.0 0.00 0.00 0.00 61 1020.1
20220117112329 31 32 4.0 5.0 0.00 0.00 0.00 60 1020.1
20220117111818 31 32 4.0 5.0 0.00 0.00 0.00 60 1020.2
20220117111326 31 31 4.0 5.0 0.00 0.00 0.00 60 1020.2
20220117110815 31 32 4.0 5.0 0.00 0.00 0.00 60 1020.2
20220117110330 31 31 4.0 5.0 0.00 0.00 0.00 60 1020.1
20220117105820 31 31 5.0 6.0 0.00 0.00 0.00 60 1020.1
20220117105334 31 30 5.0 6.0 0.00 0.00 0.00 60 1020.1
20220117104825 31 29 5.0 6.0 0.00 0.00 0.00 60 1020.1
20220117104331 31 31 5.0 6.0 0.00 0.00 0.00 60 1020.0
20220117103819 31 23 5.0 6.0 0.00 0.00 0.00 60 1020.0
20220117103328 31 28 5.0 6.0 0.00 0.00 0.00 60 1019.9
20220117102817 31 28 5.0 6.0 0.00 0.00 0.00 60 1019.9
20220117102325 31 27 5.0 6.0 0.00 0.00 0.00 59 1019.8